a   7.9505703      Node    47.85884     +0.47599202     -0.66166101

e   0.4452152      Incl.   19.35820     +0.56735977     -0.27230418

P  22.42

From 492 observations 2003 Dec. 17-2005 Dec. 1, mean residual 0".54.



NAKANO

         **** Don't distribute anyone except personal use only ****

                (C) Copyright 2006 OAA/ComputingSection

write mail from CFAD0::NAKANO on 2006-01-01 05:08:27(JST).





    P/2004 V5 - A (LINEAR-Hill)

Epoch 2005 Mar. 11.0 TT = JDT 2453440.5  

T 2005 Feb. 28.73870 TT                                 Nakano

q   4.4108620            (2000.0)            P               Q

n   0.04396499     Peri.   87.68975     -0.67195732     -0.69861514

a   7.9505658      Node    47.85877     +0.47599753     -0.66165681

e   0.4452141      Incl.   19.35820     +0.56736206     -0.27229975

P  22.42

From 479 observations 2003 Dec. 17-2005 June 1, mean residual 0".54.



NAKANO

         **** Don't distribute anyone except personal use only ****

                (C) Copyright 2005 OAA/ComputingSection

write mail from CFAD0::NAKANO on 2005-11-03 23:39:18(JST).

 



    P/2004 V5 - B (LINEAR-Hill)

Epoch 2005 Mar. 11.0 TT = JDT 2453440.5  

T 2005 Mar. 1.85846 TT                                  Nakano

q   4.4107757            (2000.0)            P               Q

n   0.04395885     Peri.   87.80850     -0.67334057     -0.69729014

a   7.9513067      Node    47.85325     +0.47468611     -0.66258017

e   0.4452766      Incl.   19.35807     +0.56682058     -0.27344833

P  22.42 (+/- 0.01 day)

From 406 observations 2003 Dec. 17-2005 May 19, mean residual 0".78.



NAKANO

         **** Don't distribute anyone except personal use only ****

                (C) Copyright 2005 OAA/ComputingSection

write mail from CFAD0::NAKANO on 2005-11-03 23:39:18(JST).

 



    P/2004 V5 - A (LINEAR-Hill)                                           

Epoch 2005 Mar. 11.0 TT = JDT 2453440.5  

T 2005 Feb. 28.74514 TT                                 Nakano

q   4.4108485            (2000.0)            P               Q

n   0.04396535     Peri.   87.69075     -0.67196763     -0.69860555

a   7.9505232      Node    47.85860     +0.47598803     -0.66166320

e   0.4452128      Incl.   19.35818     +0.56735783     -0.27230883

P  22.42 (+/- 0.01 day)

From 414 observations 2003 Dec. 17-2005 Mar. 30, mean residual 0".54.



NAKANO

         **** Don't distribute anyone except personal use only ****

                (C) Copyright 2005 OAA/ComputingSection

write mail from CFAD0::NAKANO on 2005-04-06 02:03:09(JST).





    P/2004 V5 - B (LINEAR-Hill)                                           

Epoch 2005 Mar. 11.0 TT = JDT 2453440.5  

T 2005 Mar. 1.93194 TT                                  Nakano

q   4.4106220            (2000.0)            P               Q

n   0.04396253     Peri.   87.81934     -0.67345759     -0.69717986

a   7.9508625      Node    47.85188     +0.47457754     -0.66265463

e   0.4452650      Incl.   19.35787     +0.56677247     -0.27354904

P  22.42 (+/- 0.02 day)

From 348 observations 2003 Dec. 17-2005 Mar. 30, mean residual 0".70.



NAKANO

         **** Don't distribute anyone except personal use only ****

                (C) Copyright 2005 OAA/ComputingSection

write mail from CFAD0::NAKANO on 2005-04-06 02:03:09(JST).







    P/2004 V5 - A (LINEAR-Hill)                                           

Epoch 2005 Mar. 11.0 TT = JDT 2453440.5  

T 2005 Feb. 28.74180 TT                                 Nakano

q   4.4108567            (2000.0)            P               Q

n   0.04396479     Peri.   87.68999     -0.67196229     -0.69861001

a   7.9505902      Node    47.85896     +0.47599256     -0.66166089

e   0.4452164      Incl.   19.35823     +0.56736035     -0.27230299

P  22.42 (+/- 0.01 day)

From 333 observations 2003 Dec. 17-2005 Mar. 2, mean residual 0".53.



NAKANO

         **** Don't distribute anyone except personal use only ****

                (C) Copyright 2005 OAA/ComputingSection

write mail from CFAD0::NAKANO on 2005-03-05 03:18:44(JST).

 



    P/2004 V5 - B (LINEAR-Hill)                                           

Epoch 2005 Mar. 11.0 TT = JDT 2453440.5  

T 2005 Mar. 1.96932 TT                                  Nakano

q   4.4105274            (2000.0)            P               Q

n   0.04396962     Peri.   87.82402     -0.67351553     -0.69712399

a   7.9500083      Node    47.85195     +0.47452310     -0.66269415

e   0.4452173      Incl.   19.35783     +0.56674921     -0.27359570

P  22.42 (+/- 0.02 day)

From 288 observations 2003 Dec. 17-2005 Mar. 2, mean residual 0".61.



NAKANO

         **** Don't distribute anyone except personal use only ****

                (C) Copyright 2005 OAA/ComputingSection

write mail from CFAD0::NAKANO on 2005-03-05 03:18:44(JST).

 





    P/2004 V5 - A (LINEAR-Hill)                                           

Epoch 2005 Mar. 11.0 TT = JDT 2453440.5  

T 2005 Feb. 28.74334 TT                                 Nakano

q   4.4108616            (2000.0)            P               Q

n   0.04396213     Peri.   87.69011     -0.67196546     -0.69860661

a   7.9509109      Node    47.85912     +0.47598919     -0.66166368

e   0.4452382      Incl.   19.35825     +0.56735942     -0.27230491

P  22.42 (+/- 0.02 day)

From 269 observations 2003 Dec. 17-2005 Jan. 31, mean residual 0".53.

NAKANO

         **** Don't distribute anyone except personal use only ****

                (C) Copyright 2005 OAA/ComputingSection

write mail from CFAD0::NAKANO on 2005-02-04 04:54:56(JST).

 



    P/2004 V5 - B (LINEAR-Hill)                                           

Epoch 2005 Mar. 11.0 TT = JDT 2453440.5  

T 2005 Mar. 2.04930 TT                                  Nakano

q   4.4103433            (2000.0)            P               Q

n   0.04397912     Peri.   87.83447     -0.67364073     -0.69700376

a   7.9488635      Node    47.85174     +0.47440557     -0.66277831

e   0.4451605      Incl.   19.35772     +0.56669880     -0.27369813

P  22.41 (+/- 0.03 day)

From 224 observations 2003 Dec. 17-2005 Jan. 31, mean residual 0".58.



NAKANO

         **** Don't distribute anyone except personal use only ****

                (C) Copyright 2005 OAA/ComputingSection

write mail from CFAD0::NAKANO on 2005-02-04 04:54:56(JST).

 





    P/2004 V5 - A (LINEAR-Hill)                                           

Epoch 2005 Mar. 11.0 TT = JDT 2453440.5  

T 2005 Feb. 28.72927 TT                                 Nakano

q   4.4108959            (2000.0)            P               Q

n   0.04395949     Peri.   87.68841     -0.67194396     -0.69862737

a   7.9512297      Node    47.85905     +0.47600947     -0.66164881

e   0.4452561      Incl.   19.35826     +0.56736787     -0.27228779

P  22.42 (+/- 0.07 day)

From 175 observations 2003 Dec. 17-2004 Dec. 24, mean residual 0".53.



NAKANO

         **** Don't distribute anyone except personal use only ****

                (C) Copyright 2005 OAA/ComputingSection

write mail from CFAD0::NAKANO on 2005-01-04 01:58:32(JST).

 





    P/2004 V5 - B (LINEAR-Hill)                                           

Epoch 2005 Mar. 11.0 TT = JDT 2453440.5  

T 2005 Mar. 2.25108 TT                                  Nakano

q   4.4098665            (2000.0)            P               Q

n   0.04400736     Peri.   87.86034     -0.67395454     -0.69670126

a   7.9454623      Node    47.85160     +0.47410943     -0.66299086

e   0.4449830      Incl.   19.35755     +0.56657350     -0.27395343

P  22.40 (+/- 0.10 day)

From 143 observations 2003 Dec. 17-2004 Dec. 24, mean residual 0".59.



NAKANO

         **** Don't distribute anyone except personal use only ****

                (C) Copyright 2005 OAA/ComputingSection

write mail from CFAD0::NAKANO on 2005-01-04 01:58:32(JST).

 



    P/2004 V5 - A (LINEAR-Hill)

Epoch 2005 Mar. 11.0 TT = JDT 2453440.5  

T 2005 Feb. 28.75119 TT                                 Nakano

q   4.4108391            (2000.0)            P               Q

n   0.04396427     Peri.   87.69111     -0.67197751     -0.69859504

a   7.9506526      Node    47.85911     +0.47597777     -0.66167186

e   0.4452230      Incl.   19.35825     +0.56735473     -0.27231475

P  22.42 (+/- 0.18 day)

From 91 observations 2003 Dec. 17-2004 Dec. 5, mean residual 0".63.

NAKANO

         **** Don't distribute anyone except personal use only ****

                (C) Copyright 2004 OAA/ComputingSection

write mail from CFAD0::NAKANO on 2004-12-09 01:41:38(JST).

 



    P/2004 V5 - B (LINEAR-Hill)                                           

Epoch 2005 Mar. 11.0 TT = JDT 2453440.5  

T 2005 Mar. 2.21963 TT                                  Nakano

q   4.4099253            (2000.0)            P               Q

n   0.04400917     Peri.   87.85599     -0.67390323     -0.69675064

a   7.9452440      Node    47.85175     +0.47415814     -0.66295646

e   0.4449604      Incl.   19.35756     +0.56659377     -0.27391107

P  22.40 (+/- 0.27 day)

From 70 observations 2003 Dec. 17-2004 Dec. 5, mean residual 0".73.



NAKANO

         **** Don't distribute anyone except personal use only ****

                (C) Copyright 2004 OAA/ComputingSection

write mail from CFAD0::NAKANO on 2004-12-09 01:41:38(JST).

 

◎P/2004 V5(= 2003 YM159)の軌道と予報位置です



  11月16日の観測が上尾の門田健一氏と土佐の下元繁男氏から報告された.

核Aの CCD全光度は,それぞれ,18.0等と17.8等,核Bのそれは,18.8等と

18.2等であった.LINEARサ−ベイの2004年10月の発見前の観測は,A核のも

ので,彗星はこれ以前に分裂していたものと思われる.B核の位置は,下の

A核の近日点通過に儺=+0.233日を補正した位置となる.

  もし,仮に前回のA核の近日点通過時(1982年12月)に,彗星が2つの核

に分裂した場合(その可能性は低いかも知れない),B核は,A核から

+0.062-m/sec.で分裂したことになる.



    P/2004 V5 (LINEAR-Hill)                                               

Epoch 2005 Mar. 11.0 TT = JDT 2453440.5  

T 2005 Feb. 28.71757 TT                                 Nakano

q   4.4109009            (2000.0)            P               Q

n   0.04397044     Peri.   87.68602     -0.67191887     -0.69865091

a   7.9499095      Node    47.85941     +0.47603297     -0.66163301

